Panama City, FL

7:12 PM CST on February 22, 2017 (GMT -0600)
Tyndall Air Force Base

Weather History for KPAM - November, 2013

Change the Weather History Date:

Sunday, November 17, 2013

  Actual Average Record
Temperature  
Mean Temperature 72 °F -  
Max Temperature 77 °F 69 °F 80 °F (2001)
Min Temperature 67 °F 52 °F 33 °F (1997)
Cooling Degree Days 7    
Growing Degree Days 22 (Base 50)    
Moisture  
Dew Point 70 °F    
Average Humidity 93    
Maximum Humidity 100    
Minimum Humidity 78    
Precipitation  
Precipitation 0.02 in - - ()
Sea Level Pressure  
Sea Level Pressure 30.02 in    
Wind  
Wind Speed 9 mph (SSE)    
Max Wind Speed 21 mph    
Max Gust Speed 24 mph    
Visibility 8 miles    
Events Rain    
Averages and records for this station are not official NWS values.
T = Trace of Precipitation, MM = Missing Value Source: NWS Daily Summary

Daily Weather History Graph

Daily Weather History Graph

Search for Another Location

Airport or City:

Trip Planner

Search our weather history database for the weather conditions in past years. The results will help you decide how hot, cold, wet, or windy it might be!

Date:

Astronomy

Nov. 17, 2013 Rise Set
Actual Time 6:09 AM CST 4:45 PM CST
Civil Twilight 5:43 AM CST 5:10 PM CST
Nautical Twilight 5:14 AM CST 5:39 PM CST
Astronomical Twilight 4:46 AM CST 6:08 PM CST
Moon 5:01 PM CST (11/17) 6:03 AM CST (11/17)
Length of Visible Light 11h 26m
Length of Day
10h 35m
Full, 100% of the Moon is Illuminated
Nov 17
Full
Nov 25
Last Quarter
Dec 2
New
Dec 9
First Quarter
Dec 17
Full

Hourly Weather History & Observations

Time (CST) Temp. Dew Point Humidity Pressure Visibility Wind Dir Wind Speed Gust Speed Precip Events Conditions
12:13 AM 68.0 °F 66.2 °F 94% 30.06 in 10.0 mi East 9.2 mph - N/A   Light Drizzle
12:58 AM 67.3 °F 65.8 °F 95% 30.05 in 10.0 mi East 8.1 mph - 0.00 in   Light Drizzle
1:08 AM 68.0 °F 66.2 °F 94% 30.05 in 10.0 mi East 6.9 mph - N/A   Light Drizzle
1:43 AM 68.0 °F 66.2 °F 94% 30.03 in 10.0 mi East 9.2 mph - N/A   Light Drizzle
1:58 AM 67.6 °F 66.2 °F 95% 30.04 in 10.0 mi East 8.1 mph - 0.00 in   Light Drizzle
2:08 AM 68.0 °F 66.2 °F 94% 30.03 in 10.0 mi ESE 10.4 mph - N/A   Light Drizzle
2:43 AM 68.0 °F 66.2 °F 94% 30.01 in 10.0 mi ESE 10.4 mph - N/A   Light Drizzle
2:48 AM 68.0 °F 66.2 °F 94% 30.01 in 10.0 mi ESE 10.4 mph - N/A   Light Drizzle
2:58 AM 67.6 °F 66.2 °F 95% 30.02 in 10.0 mi ESE 11.5 mph - 0.01 in   Light Drizzle
3:48 AM 68.0 °F 66.2 °F 94% 30.01 in 10.0 mi ESE 9.2 mph - N/A   Light Drizzle
3:53 AM 68.0 °F 66.2 °F 94% 30.01 in 10.0 mi ESE 8.1 mph - N/A   Light Drizzle
3:58 AM 67.6 °F 65.8 °F 94% 30.02 in 10.0 mi ESE 8.1 mph - 0.00 in   Light Drizzle
4:03 AM 68.0 °F 66.2 °F 94% 30.01 in 10.0 mi ESE 8.1 mph - N/A   Light Drizzle
4:38 AM 68.0 °F 66.2 °F 94% 30.01 in 10.0 mi East 10.4 mph - N/A   Light Drizzle
4:58 AM 67.3 °F 65.7 °F 95% 30.03 in 10.0 mi East 10.4 mph - 0.00 in   Light Drizzle
5:03 AM 68.0 °F 66.2 °F 94% 30.02 in 10.0 mi ESE 9.2 mph - N/A   Light Drizzle
5:13 AM 68.0 °F 66.2 °F 94% 30.02 in 10.0 mi ESE 9.2 mph - N/A   Light Drizzle
5:18 AM 68.0 °F 66.2 °F 94% 30.02 in 10.0 mi ESE 10.4 mph - N/A   Light Drizzle
5:23 AM 68.0 °F 66.2 °F 94% 30.02 in 10.0 mi East 8.1 mph - N/A   Light Drizzle
5:58 AM 67.5 °F 65.7 °F 94% 30.03 in 10.0 mi ESE 11.5 mph - 0.00 in   Light Drizzle
6:38 AM 68.0 °F 66.2 °F 94% 30.03 in 10.0 mi ESE 9.2 mph - N/A   Light Drizzle
6:48 AM 68.0 °F 66.2 °F 94% 30.03 in 10.0 mi ESE 10.4 mph - N/A   Light Drizzle
6:58 AM 67.8 °F 66.0 °F 94% 30.05 in 10.0 mi East 8.1 mph - 0.00 in   Light Drizzle
7:03 AM 68.0 °F 66.2 °F 94% 30.04 in 10.0 mi ESE 9.2 mph - N/A   Light Drizzle
7:08 AM 68.0 °F 66.2 °F 94% 30.04 in 10.0 mi ESE 8.1 mph - N/A   Light Drizzle
7:18 AM 68.0 °F 66.2 °F 94% 30.04 in 10.0 mi ESE 10.4 mph - N/A   Light Drizzle
7:47 AM 69.8 °F 68.0 °F 94% 30.04 in 10.0 mi ESE 10.4 mph - N/A   Partly Cloudy
7:58 AM 70.2 °F 67.8 °F 92% 30.05 in 10.0 mi ESE 9.2 mph - 0.00 in   Partly Cloudy
8:58 AM 74.3 °F 68.7 °F 83% 30.06 in 10.0 mi SE 17.3 mph - N/A   Scattered Clouds
9:13 AM 73.4 °F 68.0 °F 83% 30.06 in 10.0 mi SE 15.0 mph - N/A   Mostly Cloudy
9:23 AM 73.4 °F 68.0 °F 83% 30.06 in 10.0 mi SE 11.5 mph - N/A   Mostly Cloudy
9:58 AM 74.1 °F 68.7 °F 83% 30.06 in 10.0 mi SE 16.1 mph - N/A   Overcast
10:18 AM 77.0 °F 69.8 °F 78% 30.04 in 10.0 mi SSE 20.7 mph - N/A   Scattered Clouds
10:58 AM 77.2 °F 70.0 °F 78% 30.04 in 10.0 mi SSE 18.4 mph - N/A   Partly Cloudy
11:23 AM 77.0 °F 69.8 °F 78% 30.03 in 10.0 mi SSE 19.6 mph - N/A   Mostly Cloudy
11:33 AM 77.0 °F 69.8 °F 78% 30.02 in 10.0 mi SSE 17.3 mph - N/A   Mostly Cloudy
11:43 AM 77.0 °F 69.8 °F 78% 30.02 in 10.0 mi SSE 18.4 mph 23.0 mph N/A   Mostly Cloudy
11:58 AM 76.6 °F 70.2 °F 80% 30.03 in 10.0 mi SSE 18.4 mph 24.2 mph N/A   Mostly Cloudy
12:13 PM 77.0 °F 69.8 °F 78% 30.02 in 10.0 mi SSE 16.1 mph - N/A   Overcast
12:58 PM 76.1 °F 70.5 °F 83% 30.02 in 10.0 mi SSE 12.7 mph - N/A   Overcast
1:38 PM 75.2 °F 71.6 °F 89% 30.00 in 10.0 mi South 11.5 mph - N/A   Mostly Cloudy
1:56 PM 77.0 °F 71.6 °F 83% 30.00 in 10.0 mi South 9.2 mph - N/A   Overcast
1:58 PM 76.5 °F 71.4 °F 84% 30.01 in 10.0 mi South 9.2 mph - N/A   Overcast
2:08 PM 77.0 °F 71.6 °F 83% 30.00 in 10.0 mi South 10.4 mph - N/A   Overcast
2:20 PM 77.0 °F 71.6 °F 83% 29.99 in 10.0 mi South 12.7 mph - N/A   Overcast
2:30 PM 77.0 °F 71.6 °F 83% 29.99 in 10.0 mi South 9.2 mph - N/A   Mostly Cloudy
2:31 PM 77.0 °F 71.6 °F 83% 29.99 in 10.0 mi South 11.5 mph - N/A   Mostly Cloudy
2:46 PM 77.0 °F 71.6 °F 83% 29.99 in 10.0 mi South 9.2 mph - N/A   Scattered Clouds
2:58 PM 77.0 °F 71.6 °F 83% 30.00 in 10.0 mi South 9.2 mph - N/A   Scattered Clouds
3:58 PM 74.3 °F 70.9 °F 89% 30.00 in 10.0 mi South 6.9 mph - N/A   Clear
4:09 PM 73.4 °F 71.6 °F 94% 29.99 in 10.0 mi South 8.1 mph - N/A   Partly Cloudy
4:54 PM 73.4 °F 69.8 °F 88% 29.99 in 10.0 mi South 9.2 mph - N/A   Mostly Cloudy
4:58 PM 72.7 °F 70.7 °F 93% 30.00 in 10.0 mi SSE 9.2 mph - N/A   Mostly Cloudy
5:13 PM 73.4 °F 71.6 °F 94% 29.99 in 10.0 mi South 8.1 mph - N/A   Overcast
5:18 PM 71.6 °F 71.6 °F 100% 30.00 in 10.0 mi South 8.1 mph - N/A   Overcast
5:28 PM 73.4 °F 71.6 °F 94% 30.00 in 10.0 mi South 8.1 mph - N/A   Mostly Cloudy
5:33 PM 73.4 °F 71.6 °F 94% 30.00 in 10.0 mi South 6.9 mph - N/A   Mostly Cloudy
5:43 PM 71.6 °F 69.8 °F 94% 30.00 in 10.0 mi South 8.1 mph - N/A   Scattered Clouds
5:53 PM 71.6 °F 69.8 °F 94% 30.00 in 10.0 mi South 9.2 mph - N/A   Mostly Cloudy
5:58 PM 71.6 °F 69.8 °F 94% 30.01 in 9.0 mi South 9.2 mph - N/A   Mostly Cloudy
6:03 PM 71.6 °F 69.8 °F 94% 30.00 in 9.0 mi South 8.1 mph - N/A   Mostly Cloudy
6:13 PM 71.6 °F 69.8 °F 94% 30.00 in 7.0 mi South 8.1 mph - N/A   Overcast
6:18 PM 71.6 °F 69.8 °F 94% 30.00 in 6.0 mi South 8.1 mph - N/A   Overcast
6:28 PM 71.6 °F 71.6 °F 100% 30.00 in 7.0 mi South 8.1 mph - N/A   Overcast
6:33 PM 71.6 °F 71.6 °F 100% 30.01 in 6.0 mi South 8.1 mph - N/A   Overcast
6:38 PM 71.6 °F 71.6 °F 100% 30.01 in 4.0 mi South 8.1 mph - N/A   Overcast
6:43 PM 73.4 °F 71.6 °F 94% 30.01 in 3.0 mi South 6.9 mph - N/A   Overcast
6:53 PM 73.4 °F 71.6 °F 94% 30.01 in 4.0 mi South 9.2 mph - N/A   Overcast
6:58 PM 72.9 °F 71.4 °F 95% 30.02 in 5.0 mi South 8.1 mph - N/A   Overcast
7:03 PM 71.6 °F 71.6 °F 100% 30.01 in 4.0 mi South 9.2 mph - N/A   Overcast
7:08 PM 71.6 °F 69.8 °F 94% 30.01 in 3.0 mi South 10.4 mph - N/A   Overcast
7:13 PM 71.6 °F 71.6 °F 100% 30.01 in 2.5 mi South 8.1 mph - N/A   Overcast
7:23 PM 71.6 °F 71.6 °F 100% 30.01 in 3.0 mi South 9.2 mph - N/A   Overcast
7:33 PM 71.6 °F 71.6 °F 100% 30.02 in 2.5 mi South 6.9 mph - N/A   Overcast
7:43 PM 71.6 °F 71.6 °F 100% 30.02 in 2.0 mi South 6.9 mph - N/A   Overcast
7:48 PM 73.4 °F 71.6 °F 94% 30.02 in 1.8 mi South 6.9 mph - N/A   Overcast
7:58 PM 72.9 °F 71.4 °F 95% 30.03 in 2.5 mi South 8.1 mph - N/A   Overcast
8:03 PM 73.4 °F 71.6 °F 94% 30.02 in 4.0 mi South 8.1 mph - N/A   Overcast
8:13 PM 73.4 °F 71.6 °F 94% 30.02 in 2.5 mi South 9.2 mph - N/A   Overcast
8:18 PM 73.4 °F 71.6 °F 94% 30.02 in 2.0 mi SSW 8.1 mph - N/A   Overcast
8:38 PM 73.4 °F 71.6 °F 94% 30.03 in 1.8 mi South 8.1 mph - N/A   Overcast
8:43 PM 73.4 °F 71.6 °F 94% 30.03 in 1.5 mi SSW 6.9 mph - N/A   Overcast
8:48 PM 73.4 °F 71.6 °F 94% 30.03 in 1.0 mi South 5.8 mph - N/A   Mist
8:58 PM 72.9 °F 71.6 °F 96% 30.04 in 1.2 mi SSW 5.8 mph - N/A   Overcast
9:03 PM 73.4 °F 71.6 °F 94% 30.03 in 2.5 mi SSW 6.9 mph - N/A   Overcast
9:08 PM 73.4 °F 71.6 °F 94% 30.03 in 7.0 mi South 6.9 mph - N/A   Overcast
9:18 PM 73.4 °F 71.6 °F 94% 30.03 in 8.0 mi SSW 6.9 mph - N/A   Overcast
9:28 PM 73.4 °F 71.6 °F 94% 30.03 in 8.0 mi SSW 6.9 mph - N/A   Overcast
9:33 PM 73.4 °F 71.6 °F 94% 30.03 in 9.0 mi SSW 5.8 mph - N/A   Overcast
9:48 PM 73.4 °F 71.6 °F 94% 30.03 in 9.0 mi South 5.8 mph - N/A   Overcast
9:58 PM 72.7 °F 71.6 °F 96% 30.04 in 6.0 mi South 4.6 mph - N/A   Overcast
10:03 PM 73.4 °F 71.6 °F 94% 30.03 in 4.0 mi South 5.8 mph - N/A   Overcast
10:05 PM 73.4 °F 71.6 °F 94% 30.03 in 4.0 mi South 5.8 mph - N/A Rain Light Rain
10:10 PM 73.4 °F 71.6 °F 94% 30.03 in 5.0 mi South 5.8 mph - N/A Rain Light Rain
10:15 PM 73.4 °F 71.6 °F 94% 30.03 in 8.0 mi South 5.8 mph - N/A   Overcast
10:20 PM 73.4 °F 71.6 °F 94% 30.03 in 9.0 mi SSW 5.8 mph - N/A   Overcast
10:30 PM 73.4 °F 71.6 °F 94% 30.03 in 10.0 mi SSW 5.8 mph - N/A   Overcast
10:40 PM 73.4 °F 73.4 °F 100% 30.03 in 7.0 mi South 5.8 mph - N/A   Overcast
10:43 PM 73.4 °F 71.6 °F 94% 30.03 in 6.0 mi South 5.8 mph - N/A Rain Light Rain
10:48 PM 73.4 °F 71.6 °F 94% 30.03 in 5.0 mi South 4.6 mph - N/A   Light Drizzle
10:53 PM 73.4 °F 73.4 °F 100% 30.03 in 5.0 mi SSW 4.6 mph - N/A   Light Drizzle
10:58 PM 73.2 °F 72.5 °F 98% 30.04 in 5.0 mi SSW 3.5 mph - 0.00 in   Light Drizzle
10:59 PM 73.4 °F 71.6 °F 94% 30.03 in 5.0 mi SSW 3.5 mph - N/A   Overcast
11:13 PM 73.4 °F 71.6 °F 94% 30.02 in 6.0 mi South 5.8 mph - N/A   Light Drizzle
11:23 PM 73.4 °F 73.4 °F 100% 30.02 in 6.0 mi South 6.9 mph - N/A   Light Drizzle
11:28 PM 73.4 °F 73.4 °F 100% 30.02 in 7.0 mi South 6.9 mph - N/A   Mostly Cloudy
11:33 PM 73.4 °F 73.4 °F 100% 30.02 in 9.0 mi SSW 6.9 mph - N/A   Mostly Cloudy
11:38 PM 73.4 °F 73.4 °F 100% 30.01 in 6.0 mi South 6.9 mph - N/A   Mostly Cloudy
11:43 PM 73.4 °F 71.6 °F 94% 30.01 in 3.0 mi South 6.9 mph - N/A   Mostly Cloudy
11:45 PM 73.4 °F 71.6 °F 94% 30.01 in 2.5 mi South 6.9 mph - N/A   Light Drizzle
11:55 PM 73.4 °F 71.6 °F 94% 30.01 in 3.0 mi SSW 8.1 mph - N/A   Overcast
11:58 PM 73.4 °F 71.6 °F 94% 30.02 in 3.0 mi SSW 8.1 mph - 0.01 in   Overcast